Погода в Вертиевке

Украина / Черниговская область     51°09′51″N   31°50′45″E
темп.,
°C
ветер,
м/с
пор.,
м/с
влажн.,
%
обл.,
%
осадки,
мм/ч
давл.,
гПа
погр.,
м
21 января, пт
пт2123:00−1юз61194100 0.3 1004507
02:00−2зюз6128941 0.3 1003629
05:00−4зюз5118888 0.0 1002453
08:00−5юз6139391 0.0 1002599
11:00−3зюз81494100 0.5 10011121
14:00−2зюз91591100 0.9 10001040
17:00−2зюз91789100 0.4 10001178
20:00−2зюз81590100 0.6 1001788
22 января, сб
сб2223:00−3зюз7149598 0.1 1002669
02:00−4зюз51097100 0.4 1003318
05:00−3з61191100 0.3 1004668
08:00−4зюз51092100 0.3 1005466
11:00−3зюз5993100 0.2 1007583
14:00−2з4689100 0.7 1008531
17:00−4сз488856 0.4 1010294
20:00−8сз269777 0.4 101290
23 января, вс
вс2323:00−7сз259670 0.1 1014225
02:00−7сз2496100 0.3 1016184
05:00−8с249684 0.2 1017154
08:00−9ссв359563 0.3 1020203
11:00−9св349180 0.0 1023209
14:00−7ссв349082 0.0 1025272
17:00−9ссв369777 0.0 1028108
20:00−10ссв379655 0.0 1030122
24 января, пн
пн2423:00−11ссв389653 0.0 1031137
02:00−12с389644 0.0 1032149
05:00−12с4129582 0.0 1032235
08:00−11с61493100 0.0 1032293
11:00−8ссв61389100 0.0 1032378
14:00−6с61094100 0.3 1031407
17:00−7ссв489593 0.1 1032323
20:00−9с389551 0.1 1032165
25 января, вт
вт2523:00−11с369656 0.0 103189
02:00−13ссв249652 0.0 103174
05:00−13с359650 0.0 103094
08:00−14ссз249725 0.0 102972
11:00−10с239165 0.0 1028155
14:00−8зсз22895 0.0 1025163
17:00−11юз22955 0.0 102413
20:00−13ююз229619 0.0 102338